Weather History for Albertville, AL

Change the Weather History Date:

Saturday, May 3, 2014

  Actual Average (KGAD) Record (KGAD)
Temperature  
Mean Temperature 60 °F -  
Max Temperature 75 °F 75 °F 92 °F (1952)
Min Temperature 44 °F 51 °F 38 °F (1940)
Degree Days  
Heating Degree Days 6    
Growing Degree Days 10 (Base 50)    
Moisture  
Dew Point 49 °F    
Average Humidity 68    
Maximum Humidity 100    
Minimum Humidity 41    
Precipitation  
Precipitation 0.00 in - - ()
Sea Level Pressure  
Sea Level Pressure 30.01 in    
Wind  
Wind Speed 4 mph (WSW)    
Max Wind Speed 14 mph    
Max Gust Speed 20 mph    
Visibility 10 miles    
Events      
Averages and records for this station are not official NWS values.
T = Trace of Precipitation, MM = Missing Value Source: NWS Daily Summary

Daily Weather History Graph

Daily Weather History Graph

Search for Another Location

Airport:

Trip Planner

Search our weather history database for the weather conditions in past years. The results will help you decide how hot, cold, wet, or windy it might be!

Date:

Astronomy

May. 03, 2014 Rise Set
Actual Time 5:53 AM CDT 7:30 PM CDT
Civil Twilight 5:26 AM CDT 7:57 PM CDT
Nautical Twilight 4:54 AM CDT 8:30 PM CDT
Astronomical Twilight 4:20 AM CDT 9:04 PM CDT
Moon 9:24 AM CDT (5/3) 11:35 PM CDT (5/3)
Length of Visible Light 14h 31m
Length of Day
13h 37m
Waxing Crescent, 20% of the Moon is Illuminated
May 3
Waxing Crescent
May 6
First Quarter
May 14
Full
May 21
Last Quarter
May 28
New

Hourly Weather History & Observations

Time (CDT) Temp. Windchill Dew Point Humidity Pressure Visibility Wind Dir Wind Speed Gust Speed Precip Events Conditions
12:15 AM 51.8 °F - 44.6 °F 76% 29.99 in 10.0 mi Calm Calm - N/A   Clear
12:35 AM 50.0 °F - 44.6 °F 82% 29.98 in 10.0 mi Calm Calm - N/A   Clear
12:55 AM 48.2 °F - 44.6 °F 87% 29.98 in 10.0 mi Calm Calm - N/A   Clear
1:15 AM 46.4 °F 45.2 °F 46.4 °F 100% 29.98 in 10.0 mi SSW 3.5 mph - N/A   Clear
1:35 AM 46.4 °F 45.2 °F 46.4 °F 100% 29.97 in 10.0 mi SSW 3.5 mph - N/A   Clear
1:55 AM 46.4 °F - 46.4 °F 100% 29.97 in 10.0 mi Calm Calm - N/A   Clear
2:15 AM 46.4 °F 45.2 °F 46.4 °F 100% 29.97 in 10.0 mi SSW 3.5 mph - N/A   Clear
2:35 AM 46.4 °F 45.2 °F 46.4 °F 100% 29.98 in 10.0 mi SSW 3.5 mph - N/A   Clear
2:55 AM 44.6 °F 43.1 °F 44.6 °F 100% 29.98 in 10.0 mi SSW 3.5 mph - N/A   Clear
3:15 AM 44.6 °F 43.1 °F 44.6 °F 100% 29.98 in 10.0 mi SW 3.5 mph - N/A   Clear
3:35 AM 46.4 °F 45.2 °F 44.6 °F 93% 29.99 in 10.0 mi SW 3.5 mph - N/A   Clear
3:55 AM 46.4 °F 44.3 °F 44.6 °F 93% 29.99 in 10.0 mi SW 4.6 mph - N/A   Clear
4:15 AM 46.4 °F 45.2 °F 46.4 °F 100% 29.98 in 10.0 mi SW 3.5 mph - N/A   Clear
4:35 AM 46.4 °F 45.2 °F 44.6 °F 93% 29.98 in 10.0 mi SW 3.5 mph - N/A   Clear
4:55 AM 44.6 °F 43.1 °F 44.6 °F 100% 29.99 in 10.0 mi SW 3.5 mph - N/A   Clear
5:15 AM 46.4 °F 45.2 °F 44.6 °F 93% 29.99 in 10.0 mi SW 3.5 mph - N/A   Clear
5:35 AM 44.6 °F 43.1 °F 44.6 °F 100% 29.99 in 10.0 mi SW 3.5 mph - N/A   Clear
5:55 AM 44.6 °F 43.1 °F 44.6 °F 100% 30.00 in 10.0 mi SW 3.5 mph - N/A   Clear
6:15 AM 44.6 °F 43.1 °F 44.6 °F 100% 30.00 in 10.0 mi SW 3.5 mph - N/A   Clear
6:35 AM 46.4 °F 45.2 °F 44.6 °F 93% 30.01 in 10.0 mi SSW 3.5 mph - N/A   Clear
6:55 AM 48.2 °F - 46.4 °F 93% 30.01 in 10.0 mi Calm Calm - N/A   Clear
7:15 AM 50.0 °F - 46.4 °F 87% 30.01 in 10.0 mi SW 3.5 mph - N/A   Clear
7:35 AM 51.8 °F - 46.4 °F 82% 30.02 in 10.0 mi Calm Calm - N/A   Clear
7:55 AM 53.6 °F - 48.2 °F 82% 30.02 in 10.0 mi Calm Calm - N/A   Clear
8:15 AM 55.4 °F - 50.0 °F 82% 30.02 in 10.0 mi Calm Calm - N/A   Clear
8:35 AM 59.0 °F - 50.0 °F 72% 30.02 in 10.0 mi WSW 5.8 mph - N/A   Clear
8:55 AM 60.8 °F - 46.4 °F 59% 30.03 in 10.0 mi West 8.1 mph - N/A   Clear
9:15 AM 62.6 °F - 48.2 °F 59% 30.03 in 10.0 mi WSW 9.2 mph - N/A   Clear
9:35 AM 64.4 °F - 48.2 °F 56% 30.03 in 10.0 mi West 9.2 mph 16.1 mph N/A   Clear
9:55 AM 64.4 °F - 50.0 °F 59% 30.03 in 10.0 mi WSW 9.2 mph - N/A   Clear
10:15 AM 68.0 °F - 48.2 °F 49% 30.04 in 10.0 mi WNW 12.7 mph 17.3 mph N/A   Clear
10:35 AM 68.0 °F - 48.2 °F 49% 30.04 in 10.0 mi West 13.8 mph - N/A   Clear
10:55 AM 68.0 °F - 50.0 °F 52% 30.04 in 10.0 mi West 13.8 mph 18.4 mph N/A   Clear
11:15 AM 69.8 °F - 50.0 °F 49% 30.04 in 10.0 mi WNW 11.5 mph 17.3 mph N/A   Clear
11:35 AM 69.8 °F - 50.0 °F 49% 30.03 in 10.0 mi West 10.4 mph - N/A   Clear
11:55 AM 69.8 °F - 50.0 °F 49% 30.03 in 10.0 mi WSW 10.4 mph 18.4 mph N/A   Clear
12:15 PM 69.8 °F - 48.2 °F 46% 30.03 in 10.0 mi West 13.8 mph 19.6 mph N/A   Clear
12:35 PM 71.6 °F - 50.0 °F 46% 30.02 in 10.0 mi West 12.7 mph 17.3 mph N/A   Clear
12:55 PM 71.6 °F - 48.2 °F 43% 30.02 in 10.0 mi WNW 10.4 mph - N/A   Clear
1:15 PM 73.4 °F - 50.0 °F 44% 30.02 in 10.0 mi WNW 10.4 mph 16.1 mph N/A   Clear
1:35 PM 73.4 °F - 50.0 °F 44% 30.02 in 10.0 mi WNW 10.4 mph - N/A   Clear
1:55 PM 73.4 °F - 50.0 °F 44% 30.01 in 10.0 mi West 11.5 mph 17.3 mph N/A   Clear
2:15 PM 73.4 °F - 50.0 °F 44% 30.01 in 10.0 mi West 9.2 mph 16.1 mph N/A   Clear
2:35 PM 73.4 °F - 50.0 °F 44% 30.00 in 10.0 mi WSW 8.1 mph - N/A   Clear
2:55 PM 73.4 °F - 50.0 °F 44% 30.00 in 10.0 mi West 6.9 mph - N/A   Clear
3:15 PM 75.2 °F - 50.0 °F 41% 30.00 in 10.0 mi West 9.2 mph - N/A   Clear
3:35 PM 73.4 °F - 51.8 °F 47% 29.99 in 10.0 mi WNW 6.9 mph - N/A   Clear
3:55 PM 73.4 °F - 50.0 °F 44% 29.99 in 10.0 mi NNW 3.5 mph - N/A   Clear
4:15 PM 75.2 °F - 50.0 °F 41% 29.99 in 10.0 mi West 6.9 mph - N/A   Clear
4:35 PM 73.4 °F - 51.8 °F 47% 29.99 in 10.0 mi West 6.9 mph - N/A   Clear
4:55 PM 75.2 °F - 50.0 °F 41% 29.99 in 10.0 mi West 9.2 mph - N/A   Clear
5:15 PM 75.2 °F - 50.0 °F 41% 30.00 in 10.0 mi WNW 8.1 mph - N/A   Clear
5:35 PM 75.2 °F - 51.8 °F 44% 30.00 in 10.0 mi WSW 6.9 mph - N/A   Clear
5:55 PM 75.2 °F - 51.8 °F 44% 30.00 in 10.0 mi West 8.1 mph - N/A   Clear
6:15 PM 73.4 °F - 51.8 °F 47% 30.00 in 10.0 mi WNW 6.9 mph - N/A   Clear
6:35 PM 73.4 °F - 51.8 °F 47% 30.00 in 10.0 mi Calm Calm - N/A   Clear
6:55 PM 73.4 °F - 51.8 °F 47% 30.00 in 10.0 mi West 4.6 mph - N/A   Clear
7:15 PM 71.6 °F - 51.8 °F 50% 30.01 in 10.0 mi West 3.5 mph - N/A   Clear
7:35 PM 69.8 °F - 51.8 °F 53% 30.02 in 10.0 mi West 4.6 mph - N/A   Clear
7:55 PM 68.0 °F - 51.8 °F 56% 30.02 in 10.0 mi West 4.6 mph - N/A   Clear
8:15 PM 64.4 °F - 51.8 °F 64% 30.02 in 10.0 mi Calm Calm - N/A   Clear
8:35 PM 62.6 °F - 51.8 °F 68% 30.03 in 10.0 mi Calm Calm - N/A   Clear
8:55 PM 62.6 °F - 51.8 °F 68% 30.04 in 10.0 mi Calm Calm - N/A   Clear
9:15 PM 60.8 °F - 51.8 °F 72% 30.04 in 10.0 mi Calm Calm - N/A   Clear
9:35 PM 60.8 °F - 51.8 °F 72% 30.05 in 10.0 mi SW 3.5 mph - N/A   Clear
9:55 PM 62.6 °F - 51.8 °F 68% 30.06 in 10.0 mi SW 3.5 mph - N/A   Clear
10:15 PM 60.8 °F - 51.8 °F 72% 30.06 in 10.0 mi SW 4.6 mph - N/A   Clear
10:35 PM 59.0 °F - 53.6 °F 82% 30.07 in 10.0 mi SW 3.5 mph - N/A   Clear
10:55 PM 57.2 °F - 53.6 °F 88% 30.07 in 10.0 mi Calm Calm - N/A   Clear
11:15 PM 59.0 °F - 53.6 °F 82% 30.07 in 10.0 mi SW 4.6 mph - N/A   Clear
11:35 PM 59.0 °F - 53.6 °F 82% 30.07 in 10.0 mi Calm Calm - N/A   Clear
11:55 PM 57.2 °F - 51.8 °F 82% 30.07 in 10.0 mi SW 5.8 mph - N/A   Clear